Location: Bégole
(43.1574°N, 0.3291°E)
Time: 13:34:35
(UTC+00:00)

Cosmos 1328 - Pass Details

Date: 28 January 2023
Orbit: 518 x 544 km, 82.5° (Epoch: 19 March)

Event Time Altitude Azimuth Distance (km) Brightness Sun altitude
Rises 18:40:36 0° 190° (S) 2,706 7.6 -17.5°
Reaches altitude 10° 18:42:46 10° 192° (SSW) 1,816 6.7 -17.9°
Maximum altitude 18:46:46 77° 279° (W) 566 3.9 -18.6°
Drops below altitude 10° 18:50:46 10° 5° (N) 1,822 6.3 -19.3°
Enters shadow 18:51:51 - 6° (N) 2,262 6.8 -19.5°
